User: anonymous   Login
Location: Krasnoyarskiy Pitomnik
(51.1333°N, 71.6167°E)
Time: 15:00:08
(UTC+00:00)
Language:

Cosmos 407 Rocket - Orbit

View from above orbital plane
View from above orbital plane
View from above satellite
View from above satellite

Ground track
Ground track

The orbit data is extracted from the following two-line orbital elements,

1 05175U 71035B   22023.93929509  .00000036  00000-0  20410-4 0  9999
2 05175  74.0497 354.3239 0029302 148.7611 211.5292 14.38072818656409
Epoch (UTC): 23 January 2022 22:32:35
Eccentricity: 0.0029302
inclination: 74.0497°
perigee height: 744 km
apogee height: 786 km
right ascension of ascending node: 354.3239°
argument of perigee: 148.7611°
revolutions per day: 14.38072818
mean anomaly at epoch: 211.5292°
orbit number at epoch: 65640

The dashed part of the orbit path shows where the satellite is in the earth's shadow,  

DLR